Ft. Stewart, GA

10:16 AM EDT on August 19, 2017 (GMT -0400)
Wright Army Air Field

Weather History for KLHW - January, 2012

Change the Weather History Date:

Friday, January 27, 2012

  Actual Average Record
Temperature  
Mean Temperature 57 °F -  
Max Temperature 68 °F 61 °F 81 °F (1974)
Min Temperature 43 °F 38 °F 18 °F (1985)
Degree Days  
Heating Degree Days 8    
Growing Degree Days 7 (Base 50)    
Moisture  
Dew Point 60 °F    
Average Humidity 90    
Maximum Humidity 100    
Minimum Humidity 45    
Precipitation  
Precipitation 0.33 in - - ()
Sea Level Pressure  
Sea Level Pressure 29.83 in    
Wind  
Wind Speed 8 mph (SW)    
Max Wind Speed 21 mph    
Max Gust Speed 30 mph    
Visibility 9 miles    
Events Rain    
Averages and records for this station are not official NWS values.
T = Trace of Precipitation, MM = Missing Value Source: NWS Daily Summary

Daily Weather History Graph

Daily Weather History Graph

Search for Another Location

Airport or City:

Trip Planner

Search our weather history database for the weather conditions in past years. The results will help you decide how hot, cold, wet, or windy it might be!

Date:

Astronomy

Jan. 27, 2012 Rise Set
Actual Time 7:22 AM EST 5:55 PM EST
Civil Twilight 6:56 AM EST 6:21 PM EST
Nautical Twilight 6:27 AM EST 6:50 PM EST
Astronomical Twilight 5:58 AM EST 7:19 PM EST
Moon 9:36 AM EST (1/27) 10:22 PM EST (1/27)
Length of Visible Light 11h 24m
Length of Day
10h 32m
Waxing Crescent, 19% of the Moon is Illuminated
Jan 27
Waxing Crescent
Jan 30
First Quarter
Feb 7
Full
Feb 14
Last Quarter
Feb 21
New

Hourly Weather History & Observations

Time (EST) Temp. Dew Point Humidity Pressure Visibility Wind Dir Wind Speed Gust Speed Precip Events Conditions
12:55 AM 67.3 °F 61.9 °F 83% 29.84 in 10.0 mi South 6.9 mph - N/A   Mostly Cloudy
1:07 AM 68.0 °F 62.6 °F 83% 29.83 in 10.0 mi South 6.9 mph - N/A Rain Light Rain
1:31 AM 66.2 °F 62.6 °F 88% 29.82 in 8.0 mi Variable 6.9 mph - N/A Rain Light Rain
1:47 AM 66.2 °F 62.6 °F 88% 29.82 in 8.0 mi South 6.9 mph - N/A Rain Light Rain
1:55 AM 65.5 °F 63.3 °F 93% 29.82 in 9.0 mi South 5.8 mph - 0.02 in Rain Light Rain
2:02 AM 64.4 °F 64.4 °F 100% 29.83 in 8.0 mi South 4.6 mph - N/A Rain Light Rain
2:03 AM 64.4 °F 64.4 °F 100% 29.82 in 8.0 mi South 4.6 mph - N/A Rain Light Rain
2:13 AM 64.4 °F 64.4 °F 100% 29.81 in 8.0 mi SSE 6.9 mph - N/A Rain Light Rain
2:15 AM 64.4 °F 64.4 °F 100% 29.81 in 9.0 mi SSE 6.9 mph - N/A Rain Light Rain
2:34 AM 64.4 °F 64.4 °F 100% 29.80 in 9.0 mi SSE 8.1 mph - N/A Rain Light Rain
2:43 AM 64.4 °F 64.4 °F 100% 29.78 in 8.0 mi SSE 4.6 mph - N/A Rain Light Rain
2:55 AM 64.9 °F 64.2 °F 98% 29.80 in 10.0 mi SW 5.8 mph - 0.03 in Rain Light Rain
3:24 AM 64.4 °F 64.4 °F 100% 29.79 in 10.0 mi South 4.6 mph - N/A Rain Light Rain
3:26 AM 64.4 °F 64.4 °F 100% 29.79 in 10.0 mi South 4.6 mph - N/A   Scattered Clouds
3:27 AM 64.4 °F 64.4 °F 100% 29.79 in 10.0 mi South 5.8 mph - N/A   Mostly Cloudy
3:30 AM 64.4 °F 64.4 °F 100% 29.78 in 10.0 mi South 5.8 mph - N/A   Scattered Clouds
3:42 AM 64.4 °F 64.4 °F 100% 29.78 in 10.0 mi South 5.8 mph - N/A   Mostly Cloudy
3:52 AM 64.4 °F 64.4 °F 100% 29.78 in 10.0 mi South 5.8 mph - N/A   Mostly Cloudy
3:55 AM 64.8 °F 64.4 °F 99% 29.78 in 10.0 mi South 5.8 mph - 0.00 in   Mostly Cloudy
4:00 AM 64.4 °F 64.4 °F 100% 29.78 in 10.0 mi South 3.5 mph - N/A   Mostly Cloudy
4:11 AM 64.4 °F 64.4 °F 100% 29.78 in 10.0 mi South 6.9 mph - N/A Rain Light Rain
4:25 AM 64.4 °F 64.4 °F 100% 29.78 in 7.0 mi South 6.9 mph - N/A Rain Light Rain
4:26 AM 64.4 °F 64.4 °F 100% 29.78 in 7.0 mi South 6.9 mph - N/A Rain Light Rain
4:43 AM 64.4 °F 64.4 °F 100% 29.78 in 10.0 mi SSW 8.1 mph - N/A   Overcast
4:51 AM 64.4 °F 64.4 °F 100% 29.78 in 10.0 mi SW 8.1 mph - N/A   Overcast
4:55 AM 64.9 °F 64.6 °F 99% 29.78 in 10.0 mi SSW 9.2 mph - 0.02 in   Overcast
4:56 AM 64.4 °F 64.4 °F 100% 29.78 in 10.0 mi SSW 9.2 mph - N/A   Overcast
4:59 AM 64.4 °F 64.4 °F 100% 29.77 in 10.0 mi SSW 10.4 mph - N/A   Overcast
5:00 AM 64.4 °F 64.4 °F 100% 29.77 in 10.0 mi SSW 10.4 mph 17.3 mph N/A   Overcast
5:08 AM 66.2 °F 64.4 °F 94% 29.78 in 10.0 mi SSW 11.5 mph 18.4 mph N/A Rain Light Rain
5:13 AM 66.2 °F 64.4 °F 94% 29.78 in 9.0 mi SW 10.4 mph 18.4 mph N/A Rain Light Rain
5:19 AM 66.2 °F 64.4 °F 94% 29.78 in 7.0 mi SSW 12.7 mph 20.7 mph N/A Rain Rain
5:24 AM 66.2 °F 64.4 °F 94% 29.78 in 3.0 mi SW 11.5 mph 20.7 mph N/A Rain Heavy Rain
5:25 AM 66.2 °F 64.4 °F 94% 29.78 in 3.0 mi SW 13.8 mph 20.7 mph N/A Rain Heavy Rain
5:26 AM 66.2 °F 64.4 °F 94% 29.78 in 2.5 mi SW 16.1 mph 20.7 mph N/A Rain Heavy Rain
5:30 AM 66.2 °F 64.4 °F 94% 29.78 in 2.5 mi SW 11.5 mph 20.7 mph N/A Rain Heavy Rain
5:37 AM 66.2 °F 66.2 °F 100% 29.78 in 2.0 mi SW 9.2 mph 17.3 mph N/A Rain Heavy Rain
5:38 AM 66.2 °F 66.2 °F 100% 29.78 in 2.0 mi SW 10.4 mph 17.3 mph N/A Rain Heavy Rain
5:41 AM 66.2 °F 66.2 °F 100% 29.79 in 3.0 mi SW 10.4 mph - N/A Rain Heavy Rain
5:42 AM 66.2 °F 66.2 °F 100% 29.79 in 4.0 mi SW 10.4 mph - N/A Rain Heavy Rain
5:43 AM 66.2 °F 66.2 °F 100% 29.79 in 4.0 mi SW 8.1 mph - N/A Rain Rain
5:45 AM 66.2 °F 66.2 °F 100% 29.79 in 5.0 mi SW 6.9 mph - N/A Rain Light Rain
5:47 AM 66.2 °F 66.2 °F 100% 29.79 in 5.0 mi SSW 10.4 mph - N/A Rain Light Rain
5:48 AM 66.2 °F 66.2 °F 100% 29.79 in 4.0 mi SW 11.5 mph - N/A Rain Light Rain
5:55 AM 65.1 °F 65.1 °F 100% 29.78 in 4.0 mi SW 10.4 mph 20.7 mph 0.25 in Rain Light Rain
5:58 AM 64.4 °F 64.4 °F 100% 29.79 in 5.0 mi SSW 13.8 mph 20.7 mph N/A Rain Light Rain
6:00 AM 64.4 °F 64.4 °F 100% 29.79 in 7.0 mi SSW 11.5 mph 20.7 mph N/A   Overcast
6:01 AM 64.4 °F 64.4 °F 100% 29.79 in 8.0 mi SSW 12.7 mph 21.9 mph N/A Rain Light Rain
6:09 AM 64.4 °F 64.4 °F 100% 29.79 in 10.0 mi SSW 12.7 mph 21.9 mph N/A Rain Light Rain
6:11 AM 64.4 °F 64.4 °F 100% 29.80 in 10.0 mi SW 12.7 mph 21.9 mph N/A Rain Light Rain
6:18 AM 64.4 °F 64.4 °F 100% 29.79 in 10.0 mi SW 8.1 mph - N/A   Overcast
6:45 AM 64.4 °F 62.6 °F 94% 29.81 in 10.0 mi SSW 10.4 mph - N/A Rain Light Rain
6:55 AM 64.6 °F 62.6 °F 93% 29.81 in 10.0 mi SW 9.2 mph - 0.01 in Rain Light Rain
7:06 AM 64.4 °F 62.6 °F 94% 29.82 in 10.0 mi SW 12.7 mph 18.4 mph N/A   Overcast
7:07 AM 64.4 °F 62.6 °F 94% 29.82 in 10.0 mi SW 12.7 mph 18.4 mph N/A   Overcast
7:26 AM 64.4 °F 62.6 °F 94% 29.82 in 10.0 mi SW 9.2 mph - N/A   Overcast
7:45 AM 64.4 °F 62.6 °F 94% 29.82 in 10.0 mi SSW 9.2 mph - N/A   Overcast
7:46 AM 64.4 °F 62.6 °F 94% 29.82 in 10.0 mi SSW 9.2 mph - N/A   Overcast
7:48 AM 64.4 °F 62.6 °F 94% 29.83 in 10.0 mi SSW 8.1 mph - N/A   Overcast
7:54 AM 64.4 °F 62.6 °F 94% 29.83 in 10.0 mi SW 10.4 mph - N/A Rain Light Rain
7:55 AM 63.9 °F 62.1 °F 94% 29.83 in 10.0 mi SW 10.4 mph - 0.00 in Rain Light Rain
8:05 AM 64.4 °F 62.6 °F 94% 29.83 in 10.0 mi SW 9.2 mph - N/A   Overcast
8:26 AM 64.4 °F 59.0 °F 83% 29.85 in 10.0 mi WSW 15.0 mph 23.0 mph N/A   Light Drizzle
8:27 AM 64.4 °F 59.0 °F 83% 29.85 in 10.0 mi WSW 16.1 mph 23.0 mph N/A   Light Drizzle
8:32 AM 64.4 °F 59.0 °F 83% 29.85 in 10.0 mi WSW 17.3 mph 21.9 mph N/A   Overcast
8:55 AM 63.1 °F 56.7 °F 79% 29.86 in 10.0 mi WSW 12.7 mph - 0.00 in   Overcast
9:55 AM 64.2 °F 54.9 °F 72% 29.88 in 10.0 mi West 18.4 mph 23.0 mph N/A   Mostly Cloudy
10:09 AM 64.4 °F 55.4 °F 73% 29.89 in 10.0 mi WSW 13.8 mph 24.2 mph N/A   Mostly Cloudy
10:13 AM 64.4 °F 55.4 °F 73% 29.89 in 10.0 mi WSW 13.8 mph - N/A   Mostly Cloudy
10:14 AM 64.4 °F 55.4 °F 73% 29.89 in 10.0 mi West 13.8 mph - N/A   Mostly Cloudy
10:52 AM 62.6 °F 51.8 °F 68% 29.91 in 10.0 mi West 11.5 mph - N/A   Overcast
10:55 AM 63.7 °F 52.5 °F 67% 29.91 in 10.0 mi West 11.5 mph - N/A   Overcast
11:55 AM 66.7 °F 48.9 °F 53% 29.91 in 10.0 mi West 20.7 mph 29.9 mph N/A   Scattered Clouds
12:55 PM 66.9 °F 49.5 °F 53% 29.91 in 10.0 mi West 13.8 mph 20.7 mph N/A   Mostly Cloudy
1:55 PM 65.5 °F 46.0 °F 49% 29.90 in 10.0 mi West 18.4 mph 24.2 mph N/A   Clear
2:55 PM 66.7 °F 44.8 °F 45% 29.91 in 10.0 mi West 16.1 mph 21.9 mph N/A   Clear
3:55 PM 66.6 °F 44.8 °F 45% 29.92 in 10.0 mi WNW 13.8 mph - N/A   Clear
4:55 PM 65.8 °F 44.8 °F 47% 29.94 in 10.0 mi West 11.5 mph - N/A   Clear
5:55 PM 62.1 °F 45.7 °F 55% 29.97 in 10.0 mi West 6.9 mph - N/A   Clear
6:55 PM 56.7 °F 47.7 °F 72% 29.99 in 10.0 mi Calm Calm - N/A   Clear
7:55 PM 54.7 °F 46.8 °F 75% 30.03 in 10.0 mi WSW 3.5 mph - N/A   Clear
8:55 PM 52.7 °F 46.2 °F 79% 30.04 in 10.0 mi Calm Calm - N/A   Clear
9:55 PM 47.8 °F 44.1 °F 87% 30.06 in 10.0 mi Calm Calm - N/A   Clear
10:55 PM 46.4 °F 43.5 °F 90% 30.07 in 10.0 mi Calm Calm - N/A   Clear
11:55 PM 43.9 °F 42.6 °F 95% 30.07 in 10.0 mi Calm Calm - N/A   Clear